Weather History for Paso Robles, CA

Change the Weather History Date:

Sunday, December 29, 2013

  Actual Average Record
Temperature  
Mean Temperature 49 °F 46 °F  
Max Temperature 71 °F 59 °F 83 °F (2011)
Min Temperature 27 °F 34 °F 19 °F (1969)
Degree Days  
Heating Degree Days 16 19  
Month to date heating degree days 552 538  
Since 1 July heating degree days 1004 1087  
Cooling Degree Days 0 0  
Month to date cooling degree days 0 0  
Year to date cooling degree days 1173 927  
Moisture  
Dew Point 23 °F    
Average Humidity 43    
Maximum Humidity 69    
Minimum Humidity 17    
Precipitation  
Precipitation 0.00 in 0.07 in 1.89 in (1991)
Month to date precipitation 0.17 1.84  
Year to date precipitation 1.92 12.61  
Since 1 July precipitation 0.46 3.82  
Sea Level Pressure  
Sea Level Pressure 30.14 in    
Wind  
Wind Speed 2 mph (ENE)    
Max Wind Speed 9 mph    
Max Gust Speed 10 mph    
Visibility 10 miles    
Events      
T = Trace of Precipitation, MM = Missing Value Source: NWS Daily Summary

Daily Weather History Graph

Daily Weather History Graph

Search for Another Location

Airport:

Trip Planner

Search our weather history database for the weather conditions in past years. The results will help you decide how hot, cold, wet, or windy it might be!

Date:

Astronomy

Dec. 29, 2013 Rise Set
Actual Time 7:11 AM PST 4:58 PM PST
Civil Twilight 6:43 AM PST 5:26 PM PST
Nautical Twilight 6:11 AM PST 5:58 PM PST
Astronomical Twilight 5:40 AM PST 6:29 PM PST
Moon 4:03 AM PST (12/29) 2:38 PM PST (12/29)
Length of Visible Light 10h 43m
Length of Day
9h 46m
Waning Crescent, 10% of the Moon is Illuminated
Dec 29
Waning Crescent
Jan 1
New
Jan 7
First Quarter
Jan 15
Full
Jan 23
Last Quarter

Hourly Weather History & Observations

Time (PST) Temp. Windchill Dew Point Humidity Pressure Visibility Wind Dir Wind Speed Gust Speed Precip Events Conditions
12:53 AM 35.1 °F 30.1 °F 25.0 °F 67% 30.09 in 10.0 mi North 5.8 mph - N/A   Clear
1:53 AM 37.9 °F 33.5 °F 24.1 °F 57% 30.10 in 10.0 mi NE 5.8 mph - N/A   Clear
2:53 AM 34.0 °F 29.8 °F 23.0 °F 64% 30.11 in 10.0 mi NE 4.6 mph - N/A   Clear
3:53 AM 32.0 °F 28.7 °F 21.9 °F 66% 30.12 in 10.0 mi North 3.5 mph - N/A   Clear
4:53 AM 30.9 °F - 21.0 °F 67% 30.12 in 10.0 mi Calm Calm - N/A   Clear
5:53 AM 30.9 °F - 21.0 °F 67% 30.13 in 10.0 mi Calm Calm - N/A   Clear
6:53 AM 30.0 °F - 21.0 °F 69% 30.15 in 10.0 mi Calm Calm - N/A   Clear
7:53 AM 28.9 °F - 19.9 °F 69% 30.17 in 10.0 mi Calm Calm - N/A   Clear
8:53 AM 36.0 °F - 23.0 °F 59% 30.19 in 10.0 mi Calm Calm - N/A   Clear
9:53 AM 42.1 °F 40.2 °F 24.1 °F 49% 30.19 in 10.0 mi NNW 3.5 mph - N/A   Clear
10:53 AM 50.0 °F - 25.0 °F 38% 30.18 in 10.0 mi NNE 3.5 mph - N/A   Clear
11:53 AM 55.0 °F - 26.1 °F 33% 30.15 in 10.0 mi Calm Calm - N/A   Clear
12:53 PM 62.1 °F - 27.0 °F 26% 30.12 in 10.0 mi Calm Calm - N/A   Clear
1:53 PM 66.0 °F - 26.1 °F 22% 30.09 in 10.0 mi Calm Calm - N/A   Clear
2:53 PM 71.1 °F - 25.0 °F 18% 30.08 in 10.0 mi Calm Calm - N/A   Clear
3:53 PM 70.0 °F - 23.0 °F 17% 30.08 in 10.0 mi Calm Calm - N/A   Clear
4:53 PM 64.9 °F - 23.0 °F 20% 30.09 in 10.0 mi Calm Calm - N/A   Clear
5:53 PM 57.0 °F - 21.9 °F 26% 30.11 in 10.0 mi SE 6.9 mph - N/A   Clear
6:53 PM 51.1 °F - 23.0 °F 33% 30.14 in 10.0 mi East 8.1 mph - N/A   Clear
7:53 PM 48.9 °F - 23.0 °F 36% 30.16 in 10.0 mi Calm Calm - N/A   Clear
8:53 PM 44.1 °F 41.5 °F 21.9 °F 42% 30.17 in 10.0 mi SSE 4.6 mph - N/A   Clear
9:53 PM 45.0 °F 42.6 °F 23.0 °F 42% 30.18 in 10.0 mi East 4.6 mph - N/A   Clear
10:53 PM 41.0 °F 39.0 °F 21.9 °F 47% 30.19 in 10.0 mi East 3.5 mph - N/A   Clear
11:53 PM 37.9 °F - 21.9 °F 53% 30.20 in 10.0 mi Calm Calm - N/A   Clear